Weather History for Muscatine, IA

Change the Weather History Date:

Tuesday, April 29, 2014

  Actual Average Record
Temperature  
Mean Temperature 52 °F -  
Max Temperature 59 °F 68 °F 93 °F (1952)
Min Temperature 44 °F 46 °F 27 °F (1958)
Degree Days  
Heating Degree Days 14    
Growing Degree Days 2 (Base 50)    
Moisture  
Dew Point 47 °F    
Average Humidity 85    
Maximum Humidity 100    
Minimum Humidity 63    
Precipitation  
Precipitation 0.00 in - - ()
Sea Level Pressure  
Sea Level Pressure 29.49 in    
Wind  
Wind Speed 5 mph (SSW)    
Max Wind Speed 21 mph    
Max Gust Speed 28 mph    
Visibility 9 miles    
Events Fog    
Averages and records for this station are not official NWS values.
T = Trace of Precipitation, MM = Missing Value Source: NWS Daily Summary

Daily Weather History Graph

Daily Weather History Graph

Search for Another Location

Airport:

Trip Planner

Search our weather history database for the weather conditions in past years. The results will help you decide how hot, cold, wet, or windy it might be!

Date:

Astronomy

Apr. 29, 2014 Rise Set
Actual Time 6:04 AM CDT 7:59 PM CDT
Civil Twilight 5:34 AM CDT 8:29 PM CDT
Nautical Twilight 4:58 AM CDT 9:06 PM CDT
Astronomical Twilight 4:18 AM CDT 9:46 PM CDT
Moon 6:22 AM CDT (4/29) 8:40 PM CDT (4/29)
Length of Visible Light 14h 55m
Length of Day
13h 55m
New Moon, 0% of the Moon is Illuminated
Apr 29
New Moon
May 6
First Quarter
May 14
Full
May 21
Last Quarter
May 28
New

Hourly Weather History & Observations

Time (CDT) Temp. Windchill Dew Point Humidity Pressure Visibility Wind Dir Wind Speed Gust Speed Precip Events Conditions
12:15 AM 46.4 °F 45.2 °F 46.4 °F 100% 29.46 in 0.2 mi NE 3.5 mph - N/A Fog Fog
12:35 AM 46.4 °F - 46.4 °F 100% 29.46 in 0.8 mi Calm Calm - N/A   Overcast
12:55 AM 46.4 °F - 46.4 °F 100% 29.46 in 10.0 mi Calm Calm - N/A   Overcast
1:15 AM 46.4 °F - 46.4 °F 100% 29.46 in 7.0 mi Calm Calm - N/A   Overcast
1:35 AM 46.4 °F - 46.4 °F 100% 29.45 in 10.0 mi Calm Calm - N/A   Overcast
1:55 AM 48.2 °F - 48.2 °F 100% 29.44 in 10.0 mi North 3.5 mph - N/A   Overcast
2:15 AM 48.2 °F - 48.2 °F 100% 29.43 in 10.0 mi Calm Calm - N/A   Overcast
2:35 AM 48.2 °F - 48.2 °F 100% 29.43 in 10.0 mi Calm Calm - N/A   Overcast
2:55 AM 50.0 °F - 48.2 °F 94% 29.42 in 10.0 mi NNE 4.6 mph - N/A   Overcast
3:15 AM 50.0 °F - 48.2 °F 94% 29.42 in 10.0 mi Calm Calm - N/A   Overcast
3:35 AM 53.6 °F - 46.4 °F 77% 29.41 in 10.0 mi South 6.9 mph 12.7 mph N/A   Overcast
3:55 AM 53.6 °F - 46.4 °F 77% 29.41 in 10.0 mi ESE 6.9 mph - N/A   Overcast
4:15 AM 53.6 °F - 46.4 °F 77% 29.41 in 10.0 mi ESE 5.8 mph - N/A   Overcast
4:35 AM 51.8 °F - 46.4 °F 82% 29.41 in 10.0 mi Calm Calm - N/A   Mostly Cloudy
4:55 AM 51.8 °F - 46.4 °F 82% 29.41 in 10.0 mi North 3.5 mph - N/A   Mostly Cloudy
5:15 AM 51.8 °F - 48.2 °F 88% 29.40 in 10.0 mi ENE 4.6 mph - N/A   Overcast
5:35 AM 50.0 °F - 48.2 °F 94% 29.40 in 10.0 mi Calm Calm - N/A   Overcast
5:55 AM 50.0 °F - 48.2 °F 94% 29.40 in 10.0 mi Calm Calm - N/A   Overcast
6:15 AM 50.0 °F - 48.2 °F 94% 29.40 in 10.0 mi Calm Calm - N/A   Overcast
6:35 AM 51.8 °F - 48.2 °F 88% 29.40 in 10.0 mi East 3.5 mph - N/A   Overcast
6:55 AM 50.0 °F - 48.2 °F 94% 29.41 in 10.0 mi Calm Calm - N/A   Overcast
7:15 AM 50.0 °F - 48.2 °F 94% 29.41 in 10.0 mi Calm Calm - N/A   Overcast
7:35 AM 50.0 °F - 48.2 °F 94% 29.41 in 10.0 mi Calm Calm - N/A   Overcast
7:55 AM 50.0 °F - 48.2 °F 94% 29.41 in 10.0 mi Calm Calm - N/A   Overcast
8:15 AM 50.0 °F - 48.2 °F 94% 29.42 in 10.0 mi NE 3.5 mph - N/A   Overcast
8:35 AM 51.8 °F - 50.0 °F 94% 29.42 in 10.0 mi Calm Calm - N/A   Overcast
8:55 AM 51.8 °F - 50.0 °F 94% 29.42 in 8.0 mi ENE 4.6 mph - N/A   Overcast
9:15 AM 53.6 °F - 50.0 °F 88% 29.42 in 10.0 mi Calm Calm - N/A   Overcast
9:35 AM 53.6 °F - 48.2 °F 82% 29.43 in 10.0 mi Calm Calm - N/A   Overcast
9:55 AM 53.6 °F - 50.0 °F 88% 29.44 in 10.0 mi South 4.6 mph - N/A   Overcast
10:15 AM 53.6 °F - 48.2 °F 82% 29.44 in 7.0 mi SSW 10.4 mph - N/A   Overcast
10:35 AM 53.6 °F - 50.0 °F 88% 29.45 in 4.0 mi SSW 8.1 mph - N/A   Overcast
10:55 AM 53.6 °F - 48.2 °F 82% 29.45 in 10.0 mi SW 6.9 mph - N/A   Overcast
11:15 AM 53.6 °F - 48.2 °F 82% 29.46 in 9.0 mi South 8.1 mph - N/A   Overcast
11:35 AM 53.6 °F - 50.0 °F 88% 29.46 in 10.0 mi SSE 11.5 mph - N/A   Overcast
11:55 AM 53.6 °F - 50.0 °F 88% 29.46 in 9.0 mi South 10.4 mph - N/A   Overcast
12:15 PM 55.4 °F - 48.2 °F 77% 29.47 in 10.0 mi SSW 10.4 mph - N/A   Mostly Cloudy
12:35 PM 55.4 °F - 48.2 °F 77% 29.47 in 9.0 mi SW 9.2 mph - N/A   Overcast
1:15 PM 57.2 °F - 46.4 °F 67% 29.47 in 10.0 mi SW 11.5 mph - N/A   Overcast
1:35 PM 57.2 °F - 46.4 °F 67% 29.48 in 10.0 mi SSW 11.5 mph 21.9 mph N/A   Mostly Cloudy
1:55 PM 59.0 °F - 46.4 °F 63% 29.48 in 10.0 mi SSW 15.0 mph - N/A   Overcast
2:15 PM 59.0 °F - 46.4 °F 63% 29.48 in 10.0 mi SSW 15.0 mph - N/A   Overcast
2:35 PM 59.0 °F - 46.4 °F 63% 29.49 in 10.0 mi SSW 16.1 mph 21.9 mph N/A   Overcast
2:55 PM 57.2 °F - 48.2 °F 72% 29.50 in 10.0 mi South 18.4 mph 27.6 mph N/A   Overcast
3:15 PM 57.2 °F - 46.4 °F 67% 29.50 in 10.0 mi South 17.3 mph 24.2 mph N/A   Mostly Cloudy
3:35 PM 57.2 °F - 46.4 °F 67% 29.51 in 10.0 mi SSW 16.1 mph 24.2 mph N/A   Overcast
3:55 PM 57.2 °F - 46.4 °F 67% 29.52 in 10.0 mi South 18.4 mph - N/A   Overcast
4:15 PM 53.6 °F - 46.4 °F 77% 29.53 in 10.0 mi South 20.7 mph 27.6 mph N/A   Overcast
4:35 PM 51.8 °F - 48.2 °F 88% 29.54 in 6.0 mi South 17.3 mph 24.2 mph N/A   Overcast
5:35 PM 53.6 °F - 44.6 °F 72% 29.55 in 10.0 mi SSW 18.4 mph - N/A   Overcast
5:55 PM 53.6 °F - 44.6 °F 72% 29.56 in 10.0 mi South 11.5 mph 19.6 mph N/A   Overcast
6:15 PM 51.8 °F - 44.6 °F 76% 29.57 in 10.0 mi SSW 11.5 mph 17.3 mph N/A   Overcast
6:35 PM 51.8 °F - 44.6 °F 76% 29.58 in 10.0 mi SSW 9.2 mph 19.6 mph N/A   Overcast
6:55 PM 51.8 °F - 46.4 °F 82% 29.58 in 10.0 mi SSW 10.4 mph - N/A   Overcast
7:15 PM 51.8 °F - 46.4 °F 82% 29.59 in 10.0 mi SSW 11.5 mph - N/A   Overcast
7:35 PM 51.8 °F - 44.6 °F 76% 29.59 in 10.0 mi SSW 8.1 mph - N/A   Overcast
7:55 PM 51.8 °F - 44.6 °F 76% 29.59 in 10.0 mi SSW 9.2 mph - N/A   Overcast
8:15 PM 51.8 °F - 46.4 °F 82% 29.60 in 10.0 mi SSW 8.1 mph - N/A   Overcast
8:35 PM 51.8 °F - 46.4 °F 82% 29.60 in 10.0 mi South 5.8 mph - N/A   Overcast
9:35 PM 48.2 °F - 46.4 °F 93% 29.62 in 3.0 mi NW 12.7 mph - N/A   Overcast
9:55 PM 48.2 °F - 46.4 °F 93% 29.63 in 3.0 mi WNW 13.8 mph - N/A   Overcast
10:15 PM 46.4 °F 40.7 °F 44.6 °F 93% 29.64 in 2.5 mi WNW 12.7 mph 19.6 mph N/A   Overcast
10:35 PM 46.4 °F 40.7 °F 44.6 °F 93% 29.64 in 7.0 mi WNW 12.7 mph 21.9 mph N/A   Overcast
10:55 PM 46.4 °F 41.5 °F 44.6 °F 93% 29.65 in 3.0 mi WNW 10.4 mph 18.4 mph N/A   Overcast
11:15 PM 44.6 °F 38.1 °F 42.8 °F 93% 29.66 in 2.0 mi WNW 13.8 mph 19.6 mph N/A   Overcast
11:35 PM 44.6 °F 36.9 °F 42.8 °F 93% 29.66 in 8.0 mi WNW 18.4 mph - N/A   Overcast
11:55 PM 44.6 °F 38.1 °F 42.8 °F 93% 29.67 in 10.0 mi WNW 13.8 mph - N/A   Overcast